Regional Weather Roundup
Issued by NWS

Home | Current Version | Previous Version | Graphics & Text | Print | Product List | Glossary On
Versions: 1 2 3 4 5 6 7 8 9 10 11 12 13 14 15 16 17 18 19 20 21 22 23 24 25 26 27 28 29 30 31 32 33 34 35 36 37 38 39 40 41 42 43 44 45 46 47 48 49 50
000
ASUS43 KIND 271059
RWRIN

WEATHER ROUNDUP FOR INDIANA
NATIONAL WEATHER SERVICE INDIANAPOLIS IN
600 AM EST TUE JAN 27 2015

NOTE: "FAIR" INDICATES FEW OR NO CLOUDS BELOW 12,000 FEET WITH NO
SIGNIFICANT WEATHER AND/OR OBSTRUCTIONS TO VISIBILITY.

* - STATION DOES NOT REPORT WEATHER SUCH AS PRECIPITATION OR FOG.

+ - STATION NOT QUALITY CONTROLLED BY THE NATIONAL WEATHER SERVICE.
    USE DATA WITH CAUTION...ESPECIALLY DEWPOINT AND RELATIVE
    HUMIDITY OBSERVATIONS.

INZ001>003-010>013-019-020-271200-
NORTHWEST INDIANA

CITY           SKY/WX    TMP DP  RH WIND       PRES   REMARKS
GARY /AIRPORT/ CLOUDY    27  19  74 CALM      30.01R
VALPARAISO     CLOUDY    23  18  80 NE5       30.00R WCI  17

$$

LMZ046-743>745-271200-
SOUTHERN LAKE MICHIGAN

STATION/POSITION TIME  TEMP WIND        PRES
                       AIR  DIR/SP/G
                 (UTC) (F)  (DEG/KT/KT) (MB)
MICHIGAN CITY    1000   23   90/  2/  3   N/A

$$

INZ004-005-014>016-021>024-271200-
NORTH CENTRAL INDIANA

CITY           SKY/WX    TMP DP  RH WIND       PRES   REMARKS
GOSHEN         CLOUDY    21  14  74 NE5       29.99R WCI  15
SOUTH BEND     CLOUDY    23  13  65 NE3       30.01R

$$

INZ006>009-017-018-025>027-271200-
NORTHEAST INDIANA

CITY           SKY/WX    TMP DP  RH WIND       PRES   REMARKS
ANGOLA *+      CLOUDY    16  10  79 CALM      29.98R
FORT WAYNE     CLOUDY    18  12  77 E7        29.99R WCI   9

$$

INZ028-029-035-036-043>045-051>053-271200-
WEST CENTRAL INDIANA

CITY           SKY/WX    TMP DP  RH WIND       PRES   REMARKS
GREENCASTLE +  CLOUDY    28  23  80 CALM      29.94R
LAFAYETTE      CLOUDY    25  25 100 NE6       29.97R FOG     WCI  18
TERRE HAUTE    LGT SNOW  29  27  92 NE3       29.95S FOG

$$

INZ030>032-037>040-046>048-054>057-064-065-271200-
CENTRAL INDIANA

CITY           SKY/WX    TMP DP  RH WIND       PRES   REMARKS
INDIANAPOLIS   LGT SNOW  24  24 100 NE6       29.94R FOG     WCI  17
-EAGLE CREEK   CLOUDY    26  24  92 NE5       29.94R WCI  20
KOKOMO *+      CLOUDY    21  16  79 E6        29.96R WCI  14
MT COMFORT *+  CLOUDY    25  16  68 E5        29.95R WCI  19
SHELBYVILLE    CLOUDY    26  20  77 NE8       29.94R WCI  18

$$

INZ033-034-041-042-049-050-058-059-271200-
EAST CENTRAL INDIANA

CITY           SKY/WX    TMP DP  RH WIND       PRES   REMARKS
MUNCIE         CLOUDY    20  13  74 E7        29.96R WCI  11

$$

INZ060-061-067>069-081>083-085>088-271200-
SOUTHWEST INDIANA

CITY           SKY/WX    TMP DP  RH WIND       PRES   REMARKS
EVANSVILLE     CLOUDY    32  30  92 CALM      29.95R FOG
HUNTINGBURG *+ CLOUDY    30  27  86 E3        29.93R

$$

INZ062-063-066-070>080-084-089>092-271200-
SOUTH CENTRAL AND SOUTHEAST INDIANA

CITY           SKY/WX    TMP DP  RH WIND       PRES   REMARKS
BLOOMINGTON    CLOUDY    28  26  92 N3        29.93R

$$



USA.gov is the U.S. government's official web portal to all federal, state and local government web resources and services.